SCP
0 0 0 0 0 0 0 0 0 0 0 0 0 0 0 0 0 0 0 0 0 0 0 0 0 0 0 0 0 0 0 0 0 0 0 0 0 0 0 0 0 0 0 0
0 0 0 0 0 0 0 0 0 0 0 0 0 0 0 0 0 0 0 0 0 0 0 0 0 0 0 0 0 0 0 0 0 0 0 0 0 0 0 0 0 0 0 0
0 0 0 0 0 0 0 0 0 0 0 0 0 0 0 0 0 0 0 0 0 0 0 0 0 0 0 0 0 0 0 0 0 0 0 0 0 0 0 0 0 0 0 0
0 0 0 0 0 0 0 0 0 0 0 0 0 0 0 0 0 0 0 0 0 0 0 0 0 0 0 0 0 0 0 0 0 0 0 0 0 0 0 0 0 0 0 0
0 0 0 0 0 0 0 0 0 0 0 0 0 0 0 0 0 0 0 0 0 0 0 0 0 0 0 0 0 0 0 0 0 0 0 0 0 0 0 0 0 0 0 0
0 0 0 0 0 0 0 0 0 0 0 0 0 0 0 0 0 0 0 0 0 0 0 0 0 0 0 0 0 0 0 0 0 0 0 0 0 0 0 0 0 0 0 0
0 0 0 0 0 0 0 0 0 0 0 0 0 0 0 0 0 0 0 0 0 0 0 0 0 0 0 0 0 0 0 0 0 0 0 0 0 0 0 0 0 0 0 0
0 0 0 0 0 0 0 0 0 0 0 0 0 0 0 0 0 0 0 0 0 0 0 0 0 0 0 0 0 0 0 0 0 0 0 0 0 0 0 0 0 0 0 0
0 0 0 0 0 0 0 0 0 0 0 0 0 0 0 0 0 0 0 0 0 0 0 0 0 0 0 0 0 0 0 0 0 0 0 0 0 0 0 0 0 0 0 0
0 0 0 0 0 0 0 0 0 0 0 0 0 0 0 0 0 0 0 0 0 0 0 0 0 0 0 0 0 0 0 0 0 0 0 0 0 0 0 0 0 0 0 0
0 0 0 0 0 0 0 0 0 0 0 0 0 0 0 0 0 0 0 0 0 0 0 0 0 0 0 0 0 0 0 -0 0 0 0 0 0 0 0 0 0 0 0 0
0 0 0 0 0 0 0 0 0 0 0 0 0 0 0 0 0 0 0 0 0 0 0 0 0 0 0 -0 -0 -0 -0 0 0 0 0 0 0 0 0 0 0 0 0 0
0 0 0 0 0 0 0 0 0 0 0 0 0 0 0 0 0 0 0 0 0 0 0 0 0 0 0 0 -0 -0 -0 0 0 0 0 0 0 0 0 0 0 0 0 0
0 0 0 0 0 0 0 0 0 0 0 0 0 0 0 0 0 0 -0 0 0 0 0 0 0 0 0 0 0 0 0 0 0 0 0 0 0 0 0 0 0 0 0 0
0 0 0 0 0 0 0 0 0 0 0 0 0 0 0 0 0 0 0 0 0 0 0 0 0 0 0 0 0 0 0 0 0 0 0 0 0 0 0 0 0 0 0 0
0 0 0 0 0 0 0 0 0 0 0 0 0 0 0 0 0 0 0 0 0 0 0 0 0 0 0 0 -0 -0 -0 -0 0 0 0 0 0 0 0 0 0 0 0 0
0 0 0 0 0 0 0 0 0 0 0 0 0 0 0 0 0 0 0 0 0 0 0 0 0 0 -0 0 0 -0 -0 -0 -0 0 0 0 0 0 0 0 0 0 0 0
0 0 0 0 0 0 0 0 0 0 0 0 0 0 0 0 0 0 0 0 0 0 0 0 -0 -0 -0 0 0 -0 -0 -0 -0 -0 -0 0 0 0 0 0 0 0 0 0
0 0 0 0 0 0 0 0 0 0 0 0 0 0 0 0 0 0 0 0 0 0 0 0 -0 -0 -0 -0 -0 -0 -0 -0 -0 -0 -0 -0 -0 0 0 0 0 0 0 0
0 0 0 0 0 0 0 0 0 0 0 0 0 0 0 0 0 0 0 0 0 0 0 0 0 0 0 0 0 -0 -0 -0 -0 -0 -0 -0 -0 -0 0 0 0 0 0 0
0 0 0 0 0 0 0 0 0 0 0 0 0 0 0 0 0 0 0 0 0 0 0 0 0 0 0 0 0 -0 0 0 0 0 -0 -0 0 0 -0 0 0 0 0 0
0 0 0 0 0 0 0 0 0 0 0 0 0 0 0 0 0 0 0 0 0 0 0 0 0 0 0 0 0 0 0 0 0 0 0 0 0 0 0 0 0 0 0 0
0 0 0 0 0 0 0 0 0 0 0 0 0 0 0 0 0 0 0 0 0 0 0 0 0 0 0 0 0 0 0 0 0 0 0 0 0 0 0 0 0 0 0 0
0 0 0 0 0 0 0 0 0 0 0 0 0 0 0 0 0 0 0 0 0 0 0 0 -0 0 0 0 0 0 0 0 0 0 0 0 0 0 0 0 0 0 0 0
0 0 0 0 0 0 0 0 0 0 0 0 0 0 0 0 0 0 0 0 0 0 0 0 0 0 0 0 0 0 0 0 0 0 0 0 0 0 0 0 0 0 0 0
0 0 0 0 0 0 0 0 0 0 0 0 0 0 0 0 0 0 0 0 0 0 0 0 0 0 0 0 0 0 0 0 0 0 0 0 0 0 0 0 0 0 0 0
Wind_Speed_500mb
36 23 36 38 37 34 30 27 29 28 31 15 36 40 39 53 54 53 58 55 53 53 48 42 41 42 45 49 51 54 56 59 62 67 74 77 80 78 77 75 73 72 69 67
21 41 35 31 33 35 38 27 28 21 13 14 31 43 39 44 54 56 59 56 56 55 53 50 46 46 47 54 62 62 62 59 68 73 77 80 83 84 82 81 83 81 77 76
41 17 42 38 31 38 38 36 29 27 13 23 35 54 46 42 67 67 62 60 60 57 58 56 52 52 51 55 61 63 69 72 74 74 75 77 77 75 83 90 91 92 86 84
41 49 39 43 45 39 38 27 23 20 9 18 4 29 37 26 34 38 35 37 45 53 56 53 52 51 51 53 54 58 60 65 70 76 80 86 93 95 100 99 97 96 93 93
29 40 39 39 42 38 35 28 22 25 27 20 42 25 16 38 41 36 35 39 41 39 41 41 35 35 36 39 42 53 58 60 67 75 86 90 95 99 97 96 100 98 97 98
32 5 36 42 32 36 18 10 3 7 18 19 38 29 32 30 38 30 35 33 35 32 27 23 25 25 24 26 35 45 45 51 59 70 80 91 96 99 100 99 100 107 105 102
7 17 16 16 32 24 29 21 7 11 13 23 17 28 43 20 23 21 17 25 21 16 22 19 24 26 25 24 16 17 23 34 46 58 72 85 96 99 103 103 103 100 105 111
24 14 37 32 32 23 45 30 13 17 20 19 17 22 21 8 7 18 20 18 14 14 16 10 22 12 11 1 27 19 21 28 35 33 56 72 85 93 97 95 98 97 102 106
33 26 31 33 31 35 31 38 39 7 4 5 15 25 29 33 35 41 45 35 23 4 13 10 12 18 29 32 44 44 46 49 48 42 38 44 72 85 94 93 93 97 96 103
26 23 17 16 1 37 28 31 11 8 16 19 21 31 22 10 9 15 4 14 9 5 5 12 18 28 40 43 45 43 47 51 46 40 41 44 49 68 86 90 95 94 95 96
19 22 17 14 15 27 10 29 22 11 22 17 17 15 25 29 20 16 19 9 6 2 10 23 38 38 35 40 46 50 48 53 57 48 47 49 49 51 62 85 91 94 96 97
13 9 15 12 1 5 40 33 35 16 20 20 25 29 37 31 19 13 16 7 6 12 24 40 40 38 34 41 45 45 51 55 60 65 57 52 50 51 53 66 83 89 93 95
28 15 12 4 7 11 13 31 38 40 25 21 19 19 32 7 12 29 17 8 18 31 37 41 38 41 41 39 42 42 47 55 60 64 65 58 54 55 59 61 66 80 90 91
34 9 30 31 32 23 22 37 45 40 24 35 34 40 50 44 27 25 35 18 16 29 39 34 41 38 39 43 42 47 55 59 65 62 66 69 65 59 58 63 65 70 82 91
22 15 26 26 11 19 26 40 47 47 47 40 51 51 57 61 28 33 23 15 33 38 28 34 32 44 42 46 45 53 60 63 67 71 70 72 72 70 68 64 67 69 74 85
18 2 17 14 9 12 18 22 40 49 57 56 51 48 53 83 49 46 38 45 37 31 29 24 34 41 49 49 62 69 68 71 73 74 76 80 74 69 75 69 65 68 73 80
26 15 15 13 23 9 15 48 41 43 50 53 49 66 58 61 43 42 35 42 43 33 33 26 32 40 45 56 65 72 76 80 84 79 76 78 75 70 71 78 69 71 76 76
16 20 4 6 15 22 21 16 37 51 49 44 50 57 62 61 63 51 58 40 39 42 42 27 42 51 53 61 67 75 83 90 86 86 82 78 82 80 71 70 77 72 76 80
19 17 8 10 18 27 47 12 16 23 45 55 57 56 77 86 59 71 62 59 62 54 40 34 56 52 55 61 71 85 91 94 96 92 91 88 87 89 85 74 77 79 73 79
15 21 16 6 15 24 12 24 49 22 40 27 53 63 56 51 24 35 39 36 38 42 40 46 54 55 59 64 75 89 95 96 97 100 100 94 92 93 92 84 79 80 74 76
13 8 26 20 17 15 6 11 41 17 8 4 40 57 54 30 41 40 9 21 25 34 48 50 54 66 73 76 89 99 99 91 94 100 104 100 95 96 95 86 84 75 75 71
22 22 16 15 19 38 15 24 30 19 6 12 10 26 33 41 37 33 36 41 46 46 38 53 66 79 80 81 92 102 96 98 96 96 105 104 102 99 97 91 83 79 69 71
16 18 15 26 13 7 47 15 65 24 11 25 21 17 16 19 22 27 35 40 39 50 74 70 85 97 98 95 90 97 97 98 99 96 99 109 109 105 101 95 87 79 67 69
14 23 9 7 22 20 19 40 41 49 61 45 40 46 49 50 54 60 70 72 76 81 81 74 79 93 106 99 102 102 99 97 105 112 112 110 112 109 109 98 88 78 71 70
13 25 13 23 20 19 33 49 61 55 45 47 55 60 63 63 68 71 78 77 79 80 81 86 91 95 110 110 111 110 105 102 109 116 120 123 115 110 109 105 90 80 76 71
16 13 18 16 21 33 24 15 27 49 44 38 34 41 46 53 65 73 93 88 87 100 98 95 96 98 118 118 119 117 105 103 109 118 120 123 118 107 109 103 93 80 77 72
Wind_Direction_500mb
194 203 210 206 222 235 261 281 237 231 247 259 247 252 252 258 257 257 258 256 257 258 261 258 253 245 241 238 236 237 234 237 235 234 234 233 237 239 238 237 240 239 238 237
185 223 214 218 217 227 242 243 246 256 254 257 275 267 259 254 260 258 258 259 259 260 260 260 256 250 241 244 248 241 242 235 240 240 241 241 242 244 245 243 242 241 240 239
205 209 214 209 210 218 231 230 241 254 236 261 279 274 259 251 255 253 252 257 257 256 258 258 257 253 249 244 247 248 253 257 253 248 242 243 241 242 244 244 242 243 242 242
221 219 204 213 215 209 227 226 253 272 290 261 67 284 275 267 239 231 237 251 253 250 254 259 258 258 256 259 252 253 251 250 250 252 248 244 245 244 249 248 249 248 245 244
208 208 209 205 213 214 235 237 228 247 254 285 262 272 270 238 249 252 243 260 255 256 260 266 270 272 266 265 260 262 257 251 249 248 250 251 246 251 251 249 252 253 251 248
213 263 201 214 214 195 154 104 213 266 249 244 250 245 274 246 253 249 234 245 261 259 276 274 289 288 276 277 288 268 272 257 253 248 244 245 249 253 249 244 247 254 254 253
216 214 192 217 195 173 175 169 207 222 213 243 248 217 243 313 308 299 291 266 271 241 291 292 319 311 297 286 309 313 289 280 262 256 252 244 248 254 253 251 250 247 250 253
178 198 196 189 189 186 196 176 192 208 215 248 187 234 244 30 295 258 260 273 290 279 296 315 354 354 344 176 354 342 347 344 340 298 256 255 250 251 251 247 247 245 245 249
196 208 185 190 196 186 199 213 220 277 81 296 222 245 273 265 263 256 268 260 279 43 77 32 13 8 348 326 319 320 315 314 317 321 305 277 255 253 252 253 248 245 244 246
200 209 179 177 79 212 198 191 178 195 207 228 237 247 252 241 179 188 292 176 83 93 23 347 334 327 325 326 322 321 319 313 312 311 312 313 288 261 256 253 253 248 245 243
220 203 166 145 213 178 176 192 209 215 226 229 247 243 232 255 273 283 267 123 116 15 330 337 332 325 324 324 329 317 315 312 307 305 308 305 306 288 267 255 253 254 249 245
208 154 175 167 269 242 216 198 198 210 206 241 260 262 275 289 287 259 158 152 307 313 320 331 329 326 322 322 319 316 318 319 312 308 305 301 296 297 285 270 257 252 252 248
174 158 129 132 335 231 215 224 219 228 245 230 225 244 263 273 314 194 225 247 311 318 324 325 327 327 324 324 325 326 322 327 324 314 312 305 298 296 297 287 277 258 251 250
178 187 214 203 214 159 205 206 215 216 225 231 228 245 264 253 231 183 217 295 293 301 311 317 322 330 328 325 322 324 327 330 331 325 309 308 306 300 298 297 280 270 257 252
169 186 226 237 92 194 207 206 213 219 226 225 237 232 246 262 264 278 297 279 285 296 302 314 319 324 325 324 325 328 333 331 331 332 328 313 307 306 295 295 290 273 263 257
174 254 187 243 178 207 218 226 219 220 226 234 245 251 246 259 277 274 270 282 282 286 295 298 316 320 322 323 329 332 334 335 329 328 331 328 311 306 300 290 288 278 265 257
165 150 163 205 193 195 283 233 223 226 227 228 235 243 257 260 261 260 268 267 282 270 291 283 312 319 315 324 330 332 331 332 331 329 328 331 320 305 307 298 290 280 271 260
153 157 185 149 136 227 244 204 220 227 237 233 240 250 250 259 267 271 265 276 263 266 279 272 316 318 311 315 324 329 328 328 331 332 327 327 328 315 305 306 298 286 275 264
181 172 153 195 215 296 278 208 192 203 241 229 234 248 256 262 273 273 268 264 261 260 251 270 308 315 310 310 317 321 321 323 324 329 330 325 322 322 313 302 303 297 283 269
208 200 208 146 228 242 22 244 188 187 263 211 219 237 246 253 252 264 273 259 243 228 234 287 312 313 313 312 314 316 318 318 319 323 325 324 320 317 318 306 298 296 288 281
171 169 205 196 231 263 255 132 148 173 247 326 216 232 241 239 239 252 249 200 214 239 275 303 304 312 311 309 313 313 314 311 313 314 317 320 319 314 313 310 298 291 286 279
170 181 197 201 226 250 154 158 181 229 295 291 228 227 236 246 258 253 238 242 261 282 280 286 302 309 309 306 309 310 309 312 312 309 309 313 316 313 310 310 298 289 280 276
208 204 181 196 219 154 180 199 210 249 260 256 248 262 280 278 265 252 256 263 261 272 294 301 305 305 305 304 306 305 308 308 308 309 307 308 311 311 308 306 297 287 274 268
221 215 220 155 221 223 211 234 243 251 251 252 258 274 283 288 288 287 288 290 294 297 301 304 303 302 302 303 304 302 305 306 304 305 308 308 307 308 308 302 294 282 267 261
186 168 195 248 265 289 239 233 244 256 262 270 278 287 295 295 295 296 295 296 297 296 295 298 297 296 295 299 299 298 300 301 299 301 303 306 306 305 306 299 291 279 267 261
184 172 200 229 205 224 265 262 253 256 269 280 290 295 293 296 297 297 293 295 296 295 296 296 294 293 296 298 297 298 300 300 299 297 297 299 301 301 301 296 289 274 262 257
Wind_Speed_850mb
36 23 36 38 37 34 30 27 29 28 31 15 36 40 39 53 54 53 58 55 53 53 48 42 41 42 45 49 51 54 56 59 62 67 74 77 80 78 77 75 73 72 69 67
21 41 35 31 33 35 38 27 28 21 13 14 31 43 39 44 54 56 59 56 56 55 53 50 46 46 47 54 62 62 62 59 68 73 77 80 83 84 82 81 83 81 77 76
41 17 42 38 31 38 38 36 29 27 13 23 35 54 46 42 67 67 62 60 60 57 58 56 52 52 51 55 61 63 69 72 74 74 75 77 77 75 83 90 91 92 86 84
41 49 39 43 45 39 38 27 23 20 9 18 4 29 37 26 34 38 35 37 45 53 56 53 52 51 51 53 54 58 60 65 70 76 80 86 93 95 100 99 97 96 93 93
29 40 39 39 42 38 35 28 22 25 27 20 42 25 16 38 41 36 35 39 41 39 41 41 35 35 36 39 42 53 58 60 67 75 86 90 95 99 97 96 100 98 97 98
32 5 36 42 32 36 18 10 3 7 18 19 38 29 32 30 38 30 35 33 35 32 27 23 25 25 24 26 35 45 45 51 59 70 80 91 96 99 100 99 100 107 105 102
7 17 16 16 32 24 29 21 7 11 13 23 17 28 43 20 23 21 17 25 21 16 22 19 24 26 25 24 16 17 23 34 46 58 72 85 96 99 103 103 103 100 105 111
24 14 37 32 32 23 45 30 13 17 20 19 17 22 21 8 7 18 20 18 14 14 16 10 22 12 11 1 27 19 21 28 35 33 56 72 85 93 97 95 98 97 102 106
33 26 31 33 31 35 31 38 39 7 4 5 15 25 29 33 35 41 45 35 23 4 13 10 12 18 29 32 44 44 46 49 48 42 38 44 72 85 94 93 93 97 96 103
26 23 17 16 1 37 28 31 11 8 16 19 21 31 22 10 9 15 4 14 9 5 5 12 18 28 40 43 45 43 47 51 46 40 41 44 49 68 86 90 95 94 95 96
19 22 17 14 15 27 10 29 22 11 22 17 17 15 25 29 20 16 19 9 6 2 10 23 38 38 35 40 46 50 48 53 57 48 47 49 49 51 62 85 91 94 96 97
13 9 15 12 1 5 40 33 35 16 20 20 25 29 37 31 19 13 16 7 6 12 24 40 40 38 34 41 45 45 51 55 60 65 57 52 50 51 53 66 83 89 93 95
28 15 12 4 7 11 13 31 38 40 25 21 19 19 32 7 12 29 17 8 18 31 37 41 38 41 41 39 42 42 47 55 60 64 65 58 54 55 59 61 66 80 90 91
34 9 30 31 32 23 22 37 45 40 24 35 34 40 50 44 27 25 35 18 16 29 39 34 41 38 39 43 42 47 55 59 65 62 66 69 65 59 58 63 65 70 82 91
22 15 26 26 11 19 26 40 47 47 47 40 51 51 57 61 28 33 23 15 33 38 28 34 32 44 42 46 45 53 60 63 67 71 70 72 72 70 68 64 67 69 74 85
18 2 17 14 9 12 18 22 40 49 57 56 51 48 53 83 49 46 38 45 37 31 29 24 34 41 49 49 62 69 68 71 73 74 76 80 74 69 75 69 65 68 73 80
26 15 15 13 23 9 15 48 41 43 50 53 49 66 58 61 43 42 35 42 43 33 33 26 32 40 45 56 65 72 76 80 84 79 76 78 75 70 71 78 69 71 76 76
16 20 4 6 15 22 21 16 37 51 49 44 50 57 62 61 63 51 58 40 39 42 42 27 42 51 53 61 67 75 83 90 86 86 82 78 82 80 71 70 77 72 76 80
19 17 8 10 18 27 47 12 16 23 45 55 57 56 77 86 59 71 62 59 62 54 40 34 56 52 55 61 71 85 91 94 96 92 91 88 87 89 85 74 77 79 73 79
15 21 16 6 15 24 12 24 49 22 40 27 53 63 56 51 24 35 39 36 38 42 40 46 54 55 59 64 75 89 95 96 97 100 100 94 92 93 92 84 79 80 74 76
13 8 26 20 17 15 6 11 41 17 8 4 40 57 54 30 41 40 9 21 25 34 48 50 54 66 73 76 89 99 99 91 94 100 104 100 95 96 95 86 84 75 75 71
22 22 16 15 19 38 15 24 30 19 6 12 10 26 33 41 37 33 36 41 46 46 38 53 66 79 80 81 92 102 96 98 96 96 105 104 102 99 97 91 83 79 69 71
16 18 15 26 13 7 47 15 65 24 11 25 21 17 16 19 22 27 35 40 39 50 74 70 85 97 98 95 90 97 97 98 99 96 99 109 109 105 101 95 87 79 67 69
14 23 9 7 22 20 19 40 41 49 61 45 40 46 49 50 54 60 70 72 76 81 81 74 79 93 106 99 102 102 99 97 105 112 112 110 112 109 109 98 88 78 71 70
13 25 13 23 20 19 33 49 61 55 45 47 55 60 63 63 68 71 78 77 79 80 81 86 91 95 110 110 111 110 105 102 109 116 120 123 115 110 109 105 90 80 76 71
16 13 18 16 21 33 24 15 27 49 44 38 34 41 46 53 65 73 93 88 87 100 98 95 96 98 118 118 119 117 105 103 109 118 120 123 118 107 109 103 93 80 77 72
Wind_Direction_850mb
194 203 210 206 222 235 261 281 237 231 247 259 247 252 252 258 257 257 258 256 257 258 261 258 253 245 241 238 236 237 234 237 235 234 234 233 237 239 238 237 240 239 238 237
185 223 214 218 217 227 242 243 246 256 254 257 275 267 259 254 260 258 258 259 259 260 260 260 256 250 241 244 248 241 242 235 240 240 241 241 242 244 245 243 242 241 240 239
205 209 214 209 210 218 231 230 241 254 236 261 279 274 259 251 255 253 252 257 257 256 258 258 257 253 249 244 247 248 253 257 253 248 242 243 241 242 244 244 242 243 242 242
221 219 204 213 215 209 227 226 253 272 290 261 67 284 275 267 239 231 237 251 253 250 254 259 258 258 256 259 252 253 251 250 250 252 248 244 245 244 249 248 249 248 245 244
208 208 209 205 213 214 235 237 228 247 254 285 262 272 270 238 249 252 243 260 255 256 260 266 270 272 266 265 260 262 257 251 249 248 250 251 246 251 251 249 252 253 251 248
213 263 201 214 214 195 154 104 213 266 249 244 250 245 274 246 253 249 234 245 261 259 276 274 289 288 276 277 288 268 272 257 253 248 244 245 249 253 249 244 247 254 254 253
216 214 192 217 195 173 175 169 207 222 213 243 248 217 243 313 308 299 291 266 271 241 291 292 319 311 297 286 309 313 289 280 262 256 252 244 248 254 253 251 250 247 250 253
178 198 196 189 189 186 196 176 192 208 215 248 187 234 244 30 295 258 260 273 290 279 296 315 354 354 344 176 354 342 347 344 340 298 256 255 250 251 251 247 247 245 245 249
196 208 185 190 196 186 199 213 220 277 81 296 222 245 273 265 263 256 268 260 279 43 77 32 13 8 348 326 319 320 315 314 317 321 305 277 255 253 252 253 248 245 244 246
200 209 179 177 79 212 198 191 178 195 207 228 237 247 252 241 179 188 292 176 83 93 23 347 334 327 325 326 322 321 319 313 312 311 312 313 288 261 256 253 253 248 245 243
220 203 166 145 213 178 176 192 209 215 226 229 247 243 232 255 273 283 267 123 116 15 330 337 332 325 324 324 329 317 315 312 307 305 308 305 306 288 267 255 253 254 249 245
208 154 175 167 269 242 216 198 198 210 206 241 260 262 275 289 287 259 158 152 307 313 320 331 329 326 322 322 319 316 318 319 312 308 305 301 296 297 285 270 257 252 252 248
174 158 129 132 335 231 215 224 219 228 245 230 225 244 263 273 314 194 225 247 311 318 324 325 327 327 324 324 325 326 322 327 324 314 312 305 298 296 297 287 277 258 251 250
178 187 214 203 214 159 205 206 215 216 225 231 228 245 264 253 231 183 217 295 293 301 311 317 322 330 328 325 322 324 327 330 331 325 309 308 306 300 298 297 280 270 257 252
169 186 226 237 92 194 207 206 213 219 226 225 237 232 246 262 264 278 297 279 285 296 302 314 319 324 325 324 325 328 333 331 331 332 328 313 307 306 295 295 290 273 263 257
174 254 187 243 178 207 218 226 219 220 226 234 245 251 246 259 277 274 270 282 282 286 295 298 316 320 322 323 329 332 334 335 329 328 331 328 311 306 300 290 288 278 265 257
165 150 163 205 193 195 283 233 223 226 227 228 235 243 257 260 261 260 268 267 282 270 291 283 312 319 315 324 330 332 331 332 331 329 328 331 320 305 307 298 290 280 271 260
153 157 185 149 136 227 244 204 220 227 237 233 240 250 250 259 267 271 265 276 263 266 279 272 316 318 311 315 324 329 328 328 331 332 327 327 328 315 305 306 298 286 275 264
181 172 153 195 215 296 278 208 192 203 241 229 234 248 256 262 273 273 268 264 261 260 251 270 308 315 310 310 317 321 321 323 324 329 330 325 322 322 313 302 303 297 283 269
208 200 208 146 228 242 22 244 188 187 263 211 219 237 246 253 252 264 273 259 243 228 234 287 312 313 313 312 314 316 318 318 319 323 325 324 320 317 318 306 298 296 288 281
171 169 205 196 231 263 255 132 148 173 247 326 216 232 241 239 239 252 249 200 214 239 275 303 304 312 311 309 313 313 314 311 313 314 317 320 319 314 313 310 298 291 286 279
170 181 197 201 226 250 154 158 181 229 295 291 228 227 236 246 258 253 238 242 261 282 280 286 302 309 309 306 309 310 309 312 312 309 309 313 316 313 310 310 298 289 280 276
208 204 181 196 219 154 180 199 210 249 260 256 248 262 280 278 265 252 256 263 261 272 294 301 305 305 305 304 306 305 308 308 308 309 307 308 311 311 308 306 297 287 274 268
221 215 220 155 221 223 211 234 243 251 251 252 258 274 283 288 288 287 288 290 294 297 301 304 303 302 302 303 304 302 305 306 304 305 308 308 307 308 308 302 294 282 267 261
186 168 195 248 265 289 239 233 244 256 262 270 278 287 295 295 295 296 295 296 297 296 295 298 297 296 295 299 299 298 300 301 299 301 303 306 306 305 306 299 291 279 267 261
184 172 200 229 205 224 265 262 253 256 269 280 290 295 293 296 297 297 293 295 296 295 296 296 294 293 296 298 297 298 300 300 299 297 297 299 301 301 301 296 289 274 262 257